When you browse on this site, cookies collect data to enhance your experience and personalize the content and advertising you see.
Visit our Privacy Policy to learn more. By continuing to use the site, you agree to this use of cookies and data.
  • En España
  • Lista de países
  • Para 7 días
  • Temperatura del agua
  • Mapa Satelital
  • El tiempo en el mapa
  • Informadores
  • user-avatar
    Iniciar sesión

    Tiempo cada hora Wiktoria

    Hoy, 17 Febrero, Domingo

    Tiempo Temperatura Precipitaciones Viento Presión Humedad
    00:00 +21°C° 0 mm 4 mps 748 mmHg 65%
    01:00 +20°C° 0 mm 3 mps 748 mmHg 69%
    02:00 +20°C° 0 mm 3 mps 748 mmHg 70%
    03:00 +19°C° 0 mm 2 mps 748 mmHg 70%
    04:00 +19°C° 0 mm 2 mps 747 mmHg 71%
    05:00 +20°C° 0 mm 2 mps 747 mmHg 67%
    06:00 +20°C° 0 mm 2 mps 748 mmHg 62%
    07:00 +21°C° 0 mm 2 mps 748 mmHg 58%
    08:00 +24°C° 0 mm 1 mps 748 mmHg 49%
    09:00 +27°C° 0 mm 1 mps 747 mmHg 40%
    10:00 +29°C° 0 mm 2 mps 747 mmHg 30%
    11:00 +31°C° 0 mm 2 mps 747 mmHg 27%
    12:00 +33°C° 0 mm 3 mps 747 mmHg 24%
    13:00 +35°C° 0 mm 3 mps 746 mmHg 21%
    14:00 +35°C° 0 mm 3 mps 746 mmHg 20%
    15:00 +36°C° 0 mm 3 mps 745 mmHg 19%
    16:00 +35°C° 0 mm 2 mps 745 mmHg 20%
    17:00 +34°C° 0 mm 2 mps 745 mmHg 23%
    18:00 +32°C° 0 mm 1 mps 745 mmHg 26%
    19:00 +31°C° 0 mm 1 mps 745 mmHg 28%
    20:00 +30°C° 0 mm 1 mps 745 mmHg 30%
    21:00 +28°C° 0 mm 2 mps 745 mmHg 32%
    22:00 +27°C° 0 mm 2 mps 744 mmHg 34%
    23:00 +27°C° 0 mm 2 mps 744 mmHg 35%

    Mañana, 18 Febrero, Lunes

    Tiempo Temperatura Precipitaciones Viento Presión Humedad
    00:00 +27°C° 0 mm 2 mps 744 mmHg 35%
    01:00 +26°C° 0 mm 2 mps 744 mmHg 36%
    02:00 +26°C° 0 mm 2 mps 744 mmHg 37%
    03:00 +25°C° 0 mm 2 mps 744 mmHg 37%
    04:00 +25°C° 0 mm 2 mps 743 mmHg 38%
    05:00 +24°C° 0 mm 2 mps 743 mmHg 40%
    06:00 +24°C° 0 mm 2 mps 743 mmHg 41%
    07:00 +24°C° 0 mm 2 mps 743 mmHg 42%
    08:00 +27°C° 0 mm 2 mps 743 mmHg 36%
    09:00 +30°C° 0 mm 2 mps 743 mmHg 31%
    10:00 +32°C° 0 mm 2 mps 743 mmHg 25%
    11:00 +33°C° 0.2 mm 3 mps 742 mmHg 28%
    12:00 +32°C° 0.2 mm 4 mps 742 mmHg 31%
    13:00 +30°C° 0.2 mm 5 mps 742 mmHg 34%
    14:00 +30°C° 0.1 mm 5 mps 741 mmHg 33%
    15:00 +30°C° 0.1 mm 4 mps 741 mmHg 32%
    16:00 +31°C° 0.1 mm 3 mps 741 mmHg 31%
    17:00 +30°C° 0 mm 4 mps 741 mmHg 34%
    18:00 +29°C° 0 mm 4 mps 742 mmHg 38%
    19:00 +28°C° 0 mm 5 mps 742 mmHg 41%
    20:00 +26°C° 0 mm 6 mps 743 mmHg 49%
    21:00 +22°C° 0 mm 6 mps 743 mmHg 57%
    22:00 +20°C° 0 mm 7 mps 744 mmHg 64%
    23:00 +18°C° 0 mm 7 mps 744 mmHg 65%

    Pasado mañana, 19 Febrero, Martes

    Tiempo Temperatura Precipitaciones Viento Presión Humedad
    00:00 +17°C° 0 mm 6 mps 744 mmHg 65%
    01:00 +16°C° 0 mm 6 mps 744 mmHg 65%
    02:00 +15°C° 0 mm 6 mps 745 mmHg 67%
    03:00 +15°C° 0 mm 6 mps 745 mmHg 69%
    04:00 +14°C° 0 mm 5 mps 745 mmHg 70%
    05:00 +14°C° 0 mm 6 mps 745 mmHg 70%
    06:00 +14°C° 0 mm 6 mps 746 mmHg 69%
    07:00 +14°C° 0 mm 6 mps 746 mmHg 69%
    08:00 +16°C° 0 mm 6 mps 746 mmHg 60%
    09:00 +19°C° 0 mm 6 mps 746 mmHg 52%
    10:00 +21°C° 0 mm 6 mps 747 mmHg 43%
    11:00 +22°C° 0 mm 6 mps 746 mmHg 39%
    12:00 +23°C° 0 mm 6 mps 746 mmHg 36%
    13:00 +26°C° 0 mm 6 mps 746 mmHg 32%
    14:00 +26°C° 0 mm 6 mps 745 mmHg 32%
    15:00 +26°C° 0 mm 6 mps 745 mmHg 31%
    16:00 +26°C° 0 mm 7 mps 745 mmHg 31%
    17:00 +24°C° 0 mm 7 mps 745 mmHg 34%
    18:00 +22°C° 0 mm 6 mps 745 mmHg 37%
    19:00 +21°C° 0 mm 6 mps 746 mmHg 40%
    20:00 +19°C° 0 mm 6 mps 746 mmHg 45%
    21:00 +17°C° 0 mm 6 mps 747 mmHg 49%
    22:00 +16°C° 0 mm 6 mps 747 mmHg 54%
    23:00 +15°C° 0 mm 5 mps 747 mmHg 56%

    20 Febrero, Miércoles

    Tiempo Temperatura Precipitaciones Viento Presión Humedad
    00:00 +14°C° 0 mm 5 mps 747 mmHg 59%
    01:00 +14°C° 0 mm 4 mps 747 mmHg 61%
    02:00 +13°C° 0 mm 4 mps 747 mmHg 64%
    03:00 +13°C° 0 mm 4 mps 748 mmHg 66%
    04:00 +12°C° 0 mm 4 mps 748 mmHg 68%
    05:00 +12°C° 0 mm 4 mps 748 mmHg 69%
    06:00 +12°C° 0 mm 4 mps 748 mmHg 69%
    07:00 +13°C° 0 mm 4 mps 749 mmHg 70%
    08:00 +15°C° 0 mm 4 mps 749 mmHg 60%
    09:00 +18°C° 0 mm 4 mps 748 mmHg 51%
    10:00 +21°C° 0 mm 3 mps 748 mmHg 42%
    11:00 +24°C° 0 mm 3 mps 748 mmHg 36%
    12:00 +25°C° 0 mm 3 mps 747 mmHg 29%
    13:00 +27°C° 0 mm 3 mps 747 mmHg 23%
    14:00 +28°C° 0 mm 4 mps 746 mmHg 23%
    15:00 +28°C° 0 mm 4 mps 746 mmHg 22%
    16:00 +29°C° 0 mm 5 mps 745 mmHg 22%
    17:00 +27°C° 0 mm 5 mps 746 mmHg 28%
    18:00 +25°C° 0 mm 5 mps 746 mmHg 34%
    19:00 +23°C° 0 mm 6 mps 746 mmHg 40%
    20:00 +21°C° 0 mm 6 mps 747 mmHg 45%
    21:00 +20°C° 0 mm 6 mps 747 mmHg 49%
    22:00 +19°C° 0 mm 6 mps 748 mmHg 54%
    23:00 +17°C° 0 mm 6 mps 748 mmHg 58%

    21 Febrero, Jueves

    Tiempo Temperatura Precipitaciones Viento Presión Humedad
    00:00 +16°C° 0 mm 5 mps 748 mmHg 62%
    01:00 +16°C° 0 mm 5 mps 748 mmHg 66%
    02:00 +15°C° 0 mm 5 mps 748 mmHg 70%
    03:00 +15°C° 0 mm 5 mps 748 mmHg 73%
    04:00 +14°C° 0 mm 4 mps 748 mmHg 76%
    05:00 +14°C° 0 mm 5 mps 748 mmHg 76%
    06:00 +14°C° 0 mm 5 mps 749 mmHg 76%
    07:00 +14°C° 0 mm 5 mps 749 mmHg 76%
    08:00 +16°C° 0 mm 5 mps 750 mmHg 68%
    09:00 +20°C° 0 mm 6 mps 750 mmHg 59%
    10:00 +22°C° 0 mm 6 mps 750 mmHg 51%
    11:00 +23°C° 0 mm 6 mps 750 mmHg 46%
    12:00 +24°C° 0 mm 6 mps 749 mmHg 41%
    13:00 +27°C° 0 mm 6 mps 749 mmHg 36%
    14:00 +27°C° 0 mm 7 mps 749 mmHg 36%
    15:00 +26°C° 0 mm 8 mps 749 mmHg 36%
    16:00 +26°C° 0 mm 8 mps 749 mmHg 35%
    17:00 +23°C° 0 mm 8 mps 749 mmHg 39%
    18:00 +22°C° 0 mm 8 mps 750 mmHg 42%
    19:00 +20°C° 0 mm 8 mps 750 mmHg 45%
    20:00 +18°C° 0 mm 8 mps 751 mmHg 49%
    21:00 +17°C° 0 mm 8 mps 751 mmHg 52%
    22:00 +16°C° 0 mm 7 mps 752 mmHg 55%
    23:00 +15°C° 0 mm 7 mps 752 mmHg 57%

    22 Febrero, Viernes

    Tiempo Temperatura Precipitaciones Viento Presión Humedad
    00:00 +14°C° 0 mm 6 mps 752 mmHg 59%
    01:00 +14°C° 0 mm 5 mps 752 mmHg 62%
    02:00 +13°C° 0 mm 5 mps 752 mmHg 64%
    03:00 +13°C° 0 mm 4 mps 752 mmHg 66%
    04:00 +12°C° 0 mm 4 mps 752 mmHg 69%
    05:00 +13°C° 0 mm 4 mps 752 mmHg 68%
    06:00 +13°C° 0 mm 4 mps 753 mmHg 67%
    07:00 +13°C° 0 mm 4 mps 753 mmHg 66%
    08:00 +16°C° 0 mm 3 mps 753 mmHg 59%
    09:00 +18°C° 0 mm 3 mps 753 mmHg 53%
    10:00 +20°C° 0 mm 2 mps 754 mmHg 46%
    11:00 +23°C° 0 mm 2 mps 753 mmHg 44%
    12:00 +26°C° 0 mm 1 mps 753 mmHg 41%
    13:00 +28°C° 0 mm 1 mps 752 mmHg 39%
    14:00 +28°C° 0 mm 2 mps 752 mmHg 35%
    15:00 +29°C° 0 mm 2 mps 752 mmHg 32%
    16:00 +29°C° 0 mm 3 mps 751 mmHg 29%
    17:00 +28°C° 0 mm 4 mps 752 mmHg 31%
    18:00 +27°C° 0 mm 4 mps 752 mmHg 33%
    19:00 +25°C° 0 mm 5 mps 752 mmHg 35%
    20:00 +23°C° 0 mm 5 mps 753 mmHg 40%
    21:00 +21°C° 0 mm 6 mps 753 mmHg 45%
    22:00 +19°C° 0 mm 6 mps 754 mmHg 51%
    23:00 +19°C° 0 mm 5 mps 754 mmHg 54%
    Mostrar más